Tracking 32139 objects as of 14-Nov-2025
HD Live streaming from Space Station
objects crossing your sky now

THEA

Track THEA now!
10-day predictions


NORAD ID: 43796
Int'l Code: 2018-099AQ
Perigee: 487.8 km
Apogee: 498.9 km
Inclination: 97.5 °
Period: 94.3 minutes
Semi major axis: 6864 km
RCS: Unknown
Launch date: December 3, 2018
Source: United States (US)
Launch site: AIR FORCE WESTERN TEST RANGE (AFWTR)
Your satellite tracking list
Your tracking list is empty




NASA's NSSDC Master Catalog

Two Line Element Set (TLE):
1 43796U 18099AQ  25318.16692795  .00036362  00000-0  13882-2 0  9994
2 43796  97.4750  21.7326 0008078 335.6086  24.4769 15.26525261379790
Source of the keplerian elements: AFSPC